Weather History for KIAG - April, 2013

Change the Weather History Date:

Sunday, April 14, 2013

  Actual Average Record
Temperature  
Mean Temperature 39 °F -  
Max Temperature 46 °F 54 °F 73 °F (2014)
Min Temperature 33 °F 35 °F 24 °F (1992)
Degree Days  
Heating Degree Days 26    
Moisture  
Dew Point 28 °F    
Average Humidity 64    
Maximum Humidity 81    
Minimum Humidity 49    
Precipitation  
Precipitation 0.00 in - - ()
Sea Level Pressure  
Sea Level Pressure 30.10 in    
Wind  
Wind Speed 11 mph (West)    
Max Wind Speed 18 mph    
Max Gust Speed 22 mph    
Visibility 10 miles    
Events      
Averages and records for this station are not official NWS values.
T = Trace of Precipitation, MM = Missing Value Source: NWS Daily Summary

Daily Weather History Graph

Daily Weather History Graph

Search for Another Location

Airport or City:

Trip Planner

Search our weather history database for the weather conditions in past years. The results will help you decide how hot, cold, wet, or windy it might be!

Date:

Astronomy

Apr. 14, 2013 Rise Set
Actual Time 6:35 AM EDT 7:57 PM EDT
Civil Twilight 6:05 AM EDT 8:27 PM EDT
Nautical Twilight 5:30 AM EDT 9:02 PM EDT
Astronomical Twilight 4:52 AM EDT 9:40 PM EDT
Moon 9:05 AM EDT (4/14) No Moon Set
Length of Visible Light 14h 21m
Length of Day
13h 22m
Waxing Crescent, 17% of the Moon is Illuminated
Apr 14
Waxing Crescent
Apr 18
First Quarter
Apr 25
Full
May 2
Last Quarter
May 9
New

Hourly Weather History & Observations

Time (EDT) Temp. Windchill Dew Point Humidity Pressure Visibility Wind Dir Wind Speed Gust Speed Precip Events Conditions
12:01 AM 37.4 °F 30.8 °F 32.0 °F 81% 29.93 in 10.0 mi WSW 9.2 mph - N/A   Overcast
12:53 AM 37.9 °F 30.5 °F 32.0 °F 79% 29.98 in 10.0 mi West 11.5 mph - N/A   Overcast
1:53 AM 37.0 °F 28.5 °F 28.9 °F 73% 29.99 in 10.0 mi West 13.8 mph - N/A   Overcast
2:53 AM 37.0 °F 27.0 °F 25.0 °F 62% 30.00 in 10.0 mi WNW 18.4 mph - N/A   Overcast
3:53 AM 35.1 °F 25.9 °F 27.0 °F 72% 30.01 in 10.0 mi West 13.8 mph - N/A   Overcast
4:53 AM 35.1 °F 25.9 °F 26.1 °F 70% 30.02 in 10.0 mi West 13.8 mph - N/A   Overcast
5:53 AM 34.0 °F 25.0 °F 26.1 °F 73% 30.04 in 10.0 mi West 12.7 mph - N/A   Scattered Clouds
6:53 AM 33.1 °F 26.1 °F 26.1 °F 75% 30.06 in 10.0 mi West 8.1 mph - N/A   Clear
7:00 AM 33.8 °F 25.8 °F 26.6 °F 75% 30.03 in 10.0 mi West 10.4 mph - N/A   Scattered Clouds
7:53 AM 36.0 °F 28.5 °F 27.0 °F 70% 30.08 in 10.0 mi West 10.4 mph - N/A   Scattered Clouds
8:53 AM 37.9 °F 29.2 °F 26.1 °F 62% 30.10 in 10.0 mi West 15.0 mph - N/A   Scattered Clouds
9:53 AM 39.9 °F 31.4 °F 26.1 °F 58% 30.11 in 10.0 mi West 16.1 mph 21.9 mph N/A   Scattered Clouds
10:53 AM 42.1 °F 34.5 °F 27.0 °F 55% 30.12 in 10.0 mi West 15.0 mph 19.6 mph N/A   Scattered Clouds
11:53 AM 43.0 °F 36.4 °F 26.1 °F 51% 30.13 in 10.0 mi WNW 12.7 mph - N/A   Mostly Cloudy
12:53 PM 42.1 °F 34.9 °F 28.0 °F 58% 30.15 in 10.0 mi SW 13.8 mph - N/A   Mostly Cloudy
1:53 PM 43.0 °F 37.7 °F 30.0 °F 60% 30.16 in 10.0 mi SW 9.2 mph - N/A   Mostly Cloudy
2:53 PM 43.0 °F 37.7 °F 28.9 °F 58% 30.16 in 10.0 mi SW 9.2 mph - N/A   Mostly Cloudy
3:53 PM 44.6 °F 39.2 °F 30.2 °F 57% 30.12 in 10.0 mi SW 10.4 mph - N/A   Mostly Cloudy
4:53 PM 44.1 °F 39.5 °F 28.9 °F 55% 30.14 in 10.0 mi SW 8.1 mph - N/A   Mostly Cloudy
5:53 PM 45.0 °F - 27.0 °F 49% 30.14 in 10.0 mi Calm Calm - N/A   Mostly Cloudy
6:53 PM 44.1 °F 40.1 °F 28.9 °F 55% 30.16 in 10.0 mi ENE 6.9 mph - N/A   Mostly Cloudy
7:53 PM 41.0 °F - 27.0 °F 57% 30.17 in 10.0 mi Calm Calm - N/A   Scattered Clouds
8:53 PM 39.9 °F 36.7 °F 28.0 °F 63% 30.18 in 10.0 mi East 4.6 mph - N/A   Mostly Cloudy
9:53 PM 39.0 °F 35.7 °F 28.9 °F 67% 30.19 in 10.0 mi East 4.6 mph - N/A   Overcast
10:53 PM 37.0 °F 31.6 °F 28.0 °F 70% 30.17 in 10.0 mi East 6.9 mph - N/A   Mostly Cloudy
11:53 PM 37.0 °F 31.0 °F 28.0 °F 70% 30.16 in 10.0 mi ESE 8.1 mph - N/A   Clear